Location: Austin
(30.3000°N, 97.7500°W)
Time: 11:24:08
(UTC-05:00)

Cosmos 1340 - Pass Details

Date: 05 September 2024
Orbit: 413 x 417 km, 81.2° (Epoch: 10 September)

Event Time Altitude Azimuth Distance (km) Brightness Sun altitude
Rises 20:46:18 0° 176° (S) 2,354 5.9 -13.1°
Reaches altitude 10° 20:48:22 10° 170° (S) 1,495 4.8 -13.6°
Maximum altitude 20:51:31 47° 95° (E) 561 2.4 -14.2°
Drops below altitude 10° 20:54:41 10° 20° (NNE) 1,504 5.0 -14.9°
Sets 20:56:45 0° 15° (NNE) 2,372 6.1 -15.3°
